Home > Time Zones > World Clock > Weather > Spain > Palma > Past weeks

Flag for Spain Weather past 2 weeks in Palma, Majorca, Spain

Now
77 °F

Passing clouds.


Feels Like: 78 °F
Forecast: 59 / 73 °F
Wind: 18 mph from Northeast

Location: Palma De Mallorca / Son San Juan

Current Time: May 25, 2015 at 6:33:08 PM

Latest Report: May 25, 2015 at 6:00 PM


Visibility: N/A

Pressure: 29.98 "Hg

Humidity: 36%

Dew point: 48 °F

Location of PalmaLocation

Historic Weather in Palma — Graph

°F

Palma temperature yesterday

Maximum temperature yesterday: 75 °F (at 12:30 PM)
Minimum temperature yesterday: 48 °F (at 6:00 AM)
Average temperature yesterday: 64 °F

Past Weeks' High & Low Weather Summary

 TemperatureHumidityPressure
High86 °F (May 12, 4:00 PM)100% (May 14, 3:00 AM)30.27 "Hg (May 14, 3:00 AM)
Low45 °F (May 23, 6:30 AM)20% (May 12, 5:00 PM)29.77 "Hg (May 14, 9:30 PM)
Average66 °F64%30.08 "Hg
* Reported May 10 5:00 PM — May 25 5:30 PM, Palma, Weather by CustomWeather, © 2015

Note: Actual official high and low records may vary slightly from our data, if they occured in-between our weather recording intervals... More about our weather records

Advertising

Palma weather history for previous 24 hours

 ConditionsComfort  
Time TempWeatherWind HumidityBarometerVisibility
5:30 PM
Mon, May 25
77 °FPassing clouds.18 mph36%29.98 "HgN/A
5:00 PM79 °FPassing clouds.18 mph34%29.95 "HgN/A
4:30 PM79 °FPassing clouds.16 mph34%29.98 "HgN/A
4:00 PM79 °FPassing clouds.17 mph34%29.98 "HgN/A
3:30 PM79 °FPassing clouds.10 mph37%29.98 "HgN/A
3:00 PM79 °FPassing clouds.14 mph37%29.98 "HgN/A
2:30 PM79 °FPassing clouds.17 mph37%29.98 "HgN/A
2:00 PM79 °FPassing clouds.16 mph39%29.98 "HgN/A
1:30 PM77 °FPassing clouds.13 mph42%30.01 "HgN/A
1:00 PM79 °FPassing clouds.16 mph39%30.01 "HgN/A
12:30 PM77 °FPassing clouds.15 mph39%30.01 "HgN/A
12:00 PM77 °FPassing clouds.15 mph39%30.01 "HgN/A
11:30 AM77 °FPassing clouds.17 mph39%30.01 "HgN/A
11:00 AM75 °FPassing clouds.14 mph39%30.01 "HgN/A
10:30 AM73 °FPassing clouds.10 mph38%30.01 "HgN/A
10:00 AM73 °FPassing clouds.3 mph41%30.01 "HgN/A
9:30 AM72 °FSunny.1 mph41%30.01 "Hg10 mi
9:00 AM68 °FSunny.1 mph49%30.01 "Hg10 mi
8:30 AM64 °FPassing clouds.3 mph56%30.01 "HgN/A
8:00 AM59 °FSunny.No wind72%30.01 "Hg10 mi
7:30 AM55 °FSunny.No wind82%30.01 "Hg10 mi
7:00 AM52 °FClear.3 mph94%30.01 "Hg10 mi
6:30 AM52 °FPassing clouds.1 mph88%30.01 "HgN/A
6:00 AM52 °FPassing clouds.1 mph94%30.01 "HgN/A
5:30 AM52 °FClear.3 mph94%30.01 "Hg10 mi
5:00 AM54 °FClear.2 mph88%30.01 "Hg10 mi
4:30 AM55 °FClear.No wind82%30.01 "Hg10 mi
4:00 AM54 °FClear.1 mph88%30.01 "Hg10 mi
3:30 AM54 °FClear.1 mph88%30.01 "Hg10 mi
3:00 AM55 °FClear.No wind82%30.01 "Hg10 mi
2:30 AM55 °FClear.1 mph82%30.01 "Hg10 mi
2:00 AM57 °FClear.No wind77%30.01 "Hg10 mi
1:30 AM55 °FClear.No wind82%30.04 "Hg10 mi
1:00 AM57 °FClear.No wind82%30.04 "Hg10 mi
12:30 AM57 °FClear.2 mph82%30.04 "Hg10 mi
12:00 AM59 °FClear.2 mph82%30.04 "Hg10 mi
11:30 PM
Sun, May 24
61 °FClear.1 mph77%30.04 "Hg10 mi
11:00 PM61 °FClear.2 mph77%30.04 "Hg10 mi
10:30 PM61 °FClear.2 mph77%30.04 "Hg10 mi
10:00 PM63 °FSunny.1 mph73%30.04 "Hg10 mi
9:30 PM66 °FSunny.1 mph64%30.04 "Hg10 mi
9:00 PM68 °FSunny.3 mph64%30.04 "Hg10 mi
8:30 PM68 °FPassing clouds.8 mph60%30.04 "HgN/A
8:00 PM70 °FPassing clouds.9 mph57%30.01 "HgN/A
7:30 PM70 °FPassing clouds.8 mph57%30.01 "HgN/A
7:00 PM70 °FPassing clouds.8 mph57%30.01 "HgN/A
6:30 PM72 °FScattered clouds.8 mph47%30.01 "HgN/A
6:00 PM72 °FScattered clouds.9 mph44%30.01 "HgN/A
Weather by CustomWeather, © 2015

See weather overviewHow to use our weather pages